DAL295 KATL-RJAA

Flight info

Callsign DAL295
Flight time N/A
Altitude 30000
Route PENCL2 EMAHH DCT 41N090W DCT KP87G DCT 49N100W 53N110W/N0498F320 57N120W DCT JAGIT/N0498F340 DCT NODLE/N0501F350 R220 NANZA/N0493F360 R220 NATES/N0505F370 R220 NIPPI/N0496F380 R220 NUBDA/N0492F390 R220 NANAC/N0494F380 Y810 OLDIV Y809 SUPOK
Aircraft B744/H-SDE3FGHIM1M2RWXY/LB1

Departure

Time 2026-05-07 01:44
Airport Hartsfield Jackson Atlanta International Airport (KATL)

Arrival

Time N/A
Airport Narita International Airport (RJAA)
Time Latitude Longitude Altitude Speed Heading
2026-05-07 01:00 33.63738 -84.41928 1039 ft 0 kts 270°
2026-05-07 01:32 33.63738 -84.41916 1039 ft 2 kts 270°
2026-05-07 01:33 33.63738 -84.41897 1039 ft 2 kts 270°
2026-05-07 01:33 33.63738 -84.41877 1039 ft 2 kts 270°
2026-05-07 01:33 33.63738 -84.41858 1039 ft 2 kts 270°
2026-05-07 01:33 33.63738 -84.41839 1039 ft 2 kts 270°
2026-05-07 01:34 33.63738 -84.41819 1039 ft 2 kts 270°
2026-05-07 01:34 33.63738 -84.41800 1039 ft 2 kts 270°
2026-05-07 01:34 33.63738 -84.41780 1039 ft 2 kts 266°
2026-05-07 01:34 33.63740 -84.41761 1039 ft 2 kts 253°
2026-05-07 01:35 33.63746 -84.41743 1039 ft 2 kts 226°
2026-05-07 01:35 33.63756 -84.41737 1039 ft 0 kts 180°
2026-05-07 01:39 33.63755 -84.41737 1039 ft 0 kts 180°
2026-05-07 01:39 33.63753 -84.41737 1039 ft 2 kts 180°
2026-05-07 01:39 33.63715 -84.41738 1039 ft 9 kts 180°
2026-05-07 01:40 33.63658 -84.41715 1039 ft 9 kts 119°
2026-05-07 01:40 33.63656 -84.41626 1039 ft 13 kts 89°
2026-05-07 01:40 33.63656 -84.41496 1039 ft 18 kts 90°
2026-05-07 01:40 33.63656 -84.41328 1039 ft 23 kts 90°
2026-05-07 01:41 33.63655 -84.41117 1039 ft 28 kts 90°
2026-05-07 01:41 33.63652 -84.40942 1039 ft 13 kts 115°
2026-05-07 01:41 33.63562 -84.40909 1039 ft 15 kts 178°
2026-05-07 01:41 33.63487 -84.40909 1039 ft 7 kts 192°
2026-05-07 01:42 33.63471 -84.40936 1039 ft 0 kts 270°
2026-05-07 01:42 33.63471 -84.41022 1039 ft 34 kts 270°
2026-05-07 01:43 33.63472 -84.41556 1039 ft 94 kts 270°
2026-05-07 01:43 33.63470 -84.42524 1039 ft 139 kts 270°
2026-05-07 01:43 33.63470 -84.43884 1064 ft 182 kts 269°
2026-05-07 01:43 33.63491 -84.45429 1566 ft 185 kts 270°
2026-05-07 01:44 33.63568 -84.46974 2257 ft 186 kts 271°
2026-05-07 01:44 33.63654 -84.48516 2919 ft 182 kts 269°
2026-05-07 01:44 33.63637 -84.50045 3147 ft 188 kts 267°
2026-05-07 01:44 33.63927 -84.51616 3203 ft 202 kts 292°
2026-05-07 01:45 33.64771 -84.53035 3286 ft 216 kts 305°
2026-05-07 01:45 33.65842 -84.54368 3346 ft 227 kts 310°
2026-05-07 01:45 33.67017 -84.55695 3405 ft 238 kts 312°
2026-05-07 01:45 33.68292 -84.57048 3456 ft 252 kts 320°
2026-05-07 01:46 33.69952 -84.57899 3529 ft 268 kts 341°
2026-05-07 01:46 33.71824 -84.58226 3737 ft 276 kts 351°
2026-05-07 01:46 33.73760 -84.58287 3979 ft 281 kts 356°
2026-05-07 01:46 33.75726 -84.58223 4271 ft 284 kts 358°
2026-05-07 01:47 33.77686 -84.58147 4559 ft 285 kts 358°
2026-05-07 01:47 33.79661 -84.58092 4975 ft 280 kts 357°
2026-05-07 01:47 33.81604 -84.58066 5334 ft 278 kts 355°
2026-05-07 01:47 33.83543 -84.58084 5551 ft 280 kts 353°
2026-05-07 01:48 33.84832 -84.58213 5646 ft 280 kts 348°
2026-05-07 01:48 33.86757 -84.58638 5861 ft 283 kts 342°
2026-05-07 01:48 33.88674 -84.59220 6068 ft 285 kts 339°
2026-05-07 01:48 33.90581 -84.59875 6366 ft 284 kts 338°
2026-05-07 01:49 33.92479 -84.60537 6663 ft 285 kts 338°
2026-05-07 01:49 33.94399 -84.61192 6898 ft 287 kts 338°
2026-05-07 01:49 33.96333 -84.61830 7193 ft 288 kts 339°
2026-05-07 01:49 33.98271 -84.62467 7494 ft 290 kts 339°
2026-05-07 01:50 34.00214 -84.63102 7815 ft 289 kts 339°
2026-05-07 01:50 34.02150 -84.63731 8096 ft 287 kts 339°
2026-05-07 01:50 34.04067 -84.64352 8332 ft 284 kts 339°
2026-05-07 01:50 34.05984 -84.64975 8540 ft 286 kts 339°
2026-05-07 01:51 34.07904 -84.65598 8886 ft 285 kts 339°
2026-05-07 01:51 34.09822 -84.66222 9260 ft 289 kts 339°
2026-05-07 01:51 34.11765 -84.66853 9728 ft 287 kts 338°
2026-05-07 01:51 34.13693 -84.67473 10226 ft 288 kts 338°
2026-05-07 01:52 34.15638 -84.68104 10590 ft 287 kts 338°
2026-05-07 01:52 34.17546 -84.68726 10918 ft 284 kts 337°
2026-05-07 01:52 34.19482 -84.69359 10974 ft 292 kts 337°
2026-05-07 01:52 34.21460 -84.70003 11149 ft 297 kts 337°
2026-05-07 01:53 34.23473 -84.70658 11337 ft 303 kts 337°
2026-05-07 01:53 34.25530 -84.71330 11504 ft 308 kts 336°
2026-05-07 01:53 34.27596 -84.72107 11747 ft 316 kts 334°
2026-05-07 01:53 34.29690 -84.72982 12092 ft 321 kts 333°
2026-05-07 01:54 34.31836 -84.73915 12344 ft 334 kts 333°
2026-05-07 01:54 34.34069 -84.74883 12432 ft 347 kts 333°
2026-05-07 01:54 34.36384 -84.75881 12619 ft 359 kts 333°
2026-05-07 01:54 34.38785 -84.76910 12802 ft 373 kts 333°
2026-05-07 01:55 34.41276 -84.77975 13035 ft 386 kts 334°
2026-05-07 01:55 34.43862 -84.79077 13211 ft 401 kts 334°
2026-05-07 01:55 34.46540 -84.80217 13401 ft 416 kts 334°
2026-05-07 01:55 34.49316 -84.81399 13676 ft 427 kts 334°
2026-05-07 01:56 34.52109 -84.82582 14465 ft 432 kts 334°
2026-05-07 01:56 34.54948 -84.83787 15288 ft 434 kts 333°
2026-05-07 01:56 34.57811 -84.85012 15944 ft 437 kts 333°
2026-05-07 01:56 34.60678 -84.86230 16828 ft 435 kts 333°
2026-05-07 01:57 34.63520 -84.87438 17567 ft 435 kts 332°
2026-05-07 01:57 34.66408 -84.88656 17972 ft 441 kts 332°
2026-05-07 01:57 34.69299 -84.89875 18680 ft 441 kts 332°
2026-05-07 01:57 34.72225 -84.91132 18913 ft 451 kts 332°
2026-05-07 01:58 34.75207 -84.92407 19257 ft 457 kts 332°
2026-05-07 01:58 34.78226 -84.93698 19608 ft 462 kts 332°
2026-05-07 01:58 34.81268 -84.95001 20020 ft 465 kts 332°
2026-05-07 01:58 34.84306 -84.96285 20823 ft 455 kts 332°
2026-05-07 01:59 34.87268 -84.97562 21443 ft 454 kts 332°
2026-05-07 01:59 34.90277 -84.98845 21641 ft 461 kts 331°
2026-05-07 01:59 34.93276 -85.00137 21963 ft 464 kts 332°
2026-05-07 01:59 34.96359 -85.01459 22464 ft 464 kts 332°
2026-05-07 02:00 34.99394 -85.02766 22561 ft 473 kts 332°
2026-05-07 02:00 35.02533 -85.04119 22676 ft 481 kts 332°
2026-05-07 02:00 35.05701 -85.05485 22883 ft 486 kts 332°
2026-05-07 02:00 35.08897 -85.06865 23148 ft 488 kts 331°
2026-05-07 02:01 35.11970 -85.08542 23489 ft 480 kts 324°
2026-05-07 02:01 35.14869 -85.10568 23751 ft 479 kts 321°
2026-05-07 02:01 35.17671 -85.12775 23994 ft 479 kts 319°
2026-05-07 02:01 35.20422 -85.15070 24292 ft 480 kts 318°